QPF
0.00 0.00 0.00 0.00 0.00 0.01 0.01 0.01 0.01 0.02 0.06 0.13 0.17 0.23 0.27 0.27 0.26 0.24 0.21 0.20 0.20 0.20 0.22 0.22 0.19 0.16 0.13 0.11 0.09 0.07 0.06 0.06 0.05 0.04 0.02 0.01 0.01 0.00 0.00 0.00 0.00 0.00 0.00
0.00 0.00 0.00 0.00 0.00 0.01 0.01 0.02 0.02 0.05 0.13 0.24 0.36 0.52 0.57 0.51 0.43 0.34 0.30 0.33 0.36 0.35 0.31 0.27 0.22 0.18 0.14 0.11 0.09 0.08 0.07 0.06 0.05 0.03 0.02 0.01 0.00 0.00 0.00 0.00 0.00 0.00 0.00
0.00 0.00 0.00 0.00 0.00 0.01 0.02 0.03 0.06 0.12 0.23 0.37 0.49 0.62 0.65 0.63 0.54 0.41 0.40 0.43 0.42 0.36 0.30 0.26 0.20 0.16 0.12 0.10 0.09 0.08 0.07 0.05 0.03 0.02 0.01 0.00 0.00 0.00 0.00 0.00 0.00 0.00 0.00
0.00 0.00 0.00 0.00 0.00 0.01 0.03 0.06 0.11 0.22 0.36 0.54 0.67 0.74 0.76 0.67 0.57 0.49 0.42 0.38 0.32 0.29 0.26 0.22 0.17 0.15 0.13 0.12 0.10 0.08 0.06 0.04 0.02 0.02 0.01 0.01 0.00 0.00 0.00 0.00 0.00 0.00 0.00
0.00 0.00 0.00 0.01 0.01 0.02 0.06 0.10 0.17 0.33 0.53 0.67 0.72 0.73 0.64 0.55 0.48 0.39 0.33 0.29 0.26 0.24 0.21 0.18 0.15 0.13 0.12 0.09 0.06 0.04 0.03 0.02 0.02 0.01 0.00 0.00 0.00 0.00 0.00 0.00 0.00 0.00 0.00
0.00 0.01 0.01 0.01 0.03 0.05 0.10 0.18 0.29 0.47 0.61 0.67 0.71 0.69 0.65 0.55 0.44 0.34 0.27 0.24 0.21 0.18 0.16 0.13 0.11 0.10 0.07 0.05 0.03 0.02 0.01 0.00 0.00 0.00 0.00 0.00 0.00 0.00 0.00 0.00 0.00 0.00 0.00
0.01 0.02 0.03 0.04 0.07 0.12 0.18 0.30 0.46 0.60 0.62 0.61 0.62 0.60 0.56 0.49 0.39 0.32 0.24 0.20 0.17 0.14 0.11 0.08 0.07 0.05 0.03 0.02 0.01 0.01 0.00 0.00 0.00 0.00 0.00 0.00 0.00 0.00 0.00 0.00 0.00 0.00 0.00
0.01 0.03 0.04 0.06 0.09 0.14 0.19 0.30 0.41 0.49 0.54 0.52 0.51 0.49 0.43 0.37 0.31 0.22 0.15 0.11 0.08 0.07 0.05 0.04 0.03 0.02 0.01 0.01 0.01 0.01 0.01 0.00 0.00 0.00 0.00 0.00 0.00 0.00 0.00 0.00 0.00 0.00 0.00
0.02 0.03 0.04 0.05 0.10 0.15 0.17 0.23 0.26 0.28 0.29 0.28 0.26 0.22 0.18 0.15 0.13 0.09 0.06 0.04 0.04 0.03 0.03 0.02 0.02 0.02 0.01 0.01 0.01 0.01 0.00 0.00 0.00 0.00 0.00 0.00 0.00 0.00 0.00 0.00 0.00 0.00 0.00
0.02 0.03 0.04 0.06 0.08 0.09 0.10 0.10 0.10 0.12 0.14 0.13 0.10 0.09 0.06 0.04 0.03 0.03 0.03 0.02 0.02 0.02 0.02 0.02 0.02 0.02 0.01 0.01 0.01 0.00 0.00 0.00 0.00 0.00 0.00 0.00 0.00 0.00 0.00 0.00 0.00 0.00 0.00
0.03 0.03 0.04 0.05 0.04 0.04 0.04 0.04 0.04 0.05 0.04 0.04 0.03 0.02 0.01 0.01 0.01 0.01 0.01 0.01 0.01 0.01 0.02 0.02 0.02 0.02 0.02 0.01 0.01 0.01 0.01 0.00 0.00 0.00 0.00 0.00 0.00 0.00 0.00 0.00 0.00 0.00 0.00
0.02 0.03 0.03 0.03 0.02 0.02 0.02 0.02 0.01 0.01 0.01 0.01 0.01 0.01 0.01 0.01 0.01 0.01 0.01 0.01 0.01 0.01 0.02 0.02 0.02 0.02 0.02 0.02 0.01 0.01 0.00 0.00 0.00 0.00 0.00 0.00 0.00 0.00 0.00 0.00 0.00 0.00 0.00
0.03 0.02 0.02 0.02 0.01 0.01 0.00 0.00 0.00 0.00 0.00 0.00 0.00 0.00 0.00 0.01 0.01 0.01 0.01 0.01 0.02 0.02 0.03 0.03 0.02 0.02 0.01 0.01 0.01 0.01 0.00 0.00 0.00 0.01 0.01 0.00 0.00 0.00 0.00 0.00 0.00 0.00 0.00
0.02 0.01 0.01 0.01 0.01 0.00 0.00 0.00 0.00 0.00 0.00 0.01 0.01 0.01 0.01 0.01 0.02 0.02 0.02 0.03 0.03 0.03 0.03 0.03 0.02 0.02 0.01 0.01 0.01 0.01 0.01 0.01 0.01 0.00 0.00 0.00 0.00 0.00 0.00 0.00 0.00 0.00 0.00
0.01 0.01 0.01 0.00 0.00 0.01 0.00 0.00 0.01 0.01 0.01 0.01 0.01 0.02 0.02 0.03 0.03 0.03 0.03 0.03 0.04 0.04 0.03 0.02 0.02 0.02 0.01 0.01 0.01 0.01 0.00 0.00 0.00 0.00 0.00 0.00 0.00 0.00 0.00 0.01 0.01 0.01 0.01
0.01 0.01 0.01 0.00 0.00 0.00 0.01 0.01 0.01 0.01 0.02 0.03 0.04 0.05 0.05 0.05 0.05 0.05 0.04 0.04 0.03 0.03 0.02 0.02 0.01 0.01 0.01 0.01 0.00 0.00 0.00 0.00 0.00 0.00 0.00 0.00 0.00 0.00 0.00 0.00 0.01 0.01 0.02
0.01 0.00 0.00 0.00 0.00 0.01 0.01 0.01 0.02 0.02 0.03 0.04 0.05 0.05 0.05 0.06 0.05 0.05 0.04 0.03 0.02 0.02 0.02 0.01 0.01 0.00 0.00 0.00 0.00 0.00 0.00 0.00 0.00 0.00 0.00 0.00 0.00 0.00 0.00 0.00 0.00 0.00 0.01
0.01 0.01 0.01 0.01 0.01 0.01 0.01 0.02 0.02 0.03 0.04 0.04 0.05 0.05 0.05 0.04 0.04 0.03 0.02 0.02 0.01 0.01 0.01 0.00 0.00 0.00 0.00 0.00 0.00 0.00 0.00 0.00 0.00 0.00 0.00 0.00 0.00 0.00 0.00 0.00 0.00 0.00 0.00
0.01 0.01 0.01 0.01 0.01 0.01 0.02 0.02 0.03 0.03 0.04 0.04 0.04 0.04 0.03 0.02 0.02 0.01 0.01 0.00 0.00 0.00 0.00 0.00 0.00 0.00 0.00 0.00 0.00 0.00 0.00 0.00 0.00 0.00 0.00 0.00 0.00 0.00 0.01 0.01 0.01 0.00 0.00
0.00 0.00 0.00 0.01 0.01 0.01 0.01 0.02 0.02 0.03 0.03 0.03 0.02 0.01 0.01 0.01 0.00 0.00 0.00 0.00 0.00 0.00 0.00 0.00 0.00 0.00 0.00 0.00 0.00 0.00 0.00 0.00 0.00 0.00 0.00 0.00 0.00 0.00 0.01 0.01 0.01 0.01 0.01
0.00 0.00 0.01 0.01 0.01 0.01 0.01 0.01 0.01 0.02 0.02 0.01 0.01 0.00 0.00 0.00 0.00 0.00 0.00 0.00 0.00 0.00 0.00 0.00 0.00 0.00 0.00 0.00 0.00 0.00 0.00 0.00 0.00 0.00 0.00 0.00 0.00 0.00 0.00 0.01 0.01 0.01 0.01
0.00 0.00 0.01 0.01 0.00 0.01 0.01 0.01 0.01 0.01 0.00 0.00 0.00 0.00 0.00 0.00 0.00 0.00 0.00 0.00 0.00 0.00 0.00 0.00 0.00 0.00 0.00 0.00 0.00 0.00 0.00 0.00 0.00 0.01 0.00 0.00 0.00 0.00 0.00 0.00 0.00 0.01 0.01
0.00 0.00 0.00 0.00 0.00 0.00 0.00 0.00 0.00 0.00 0.00 0.00 0.00 0.00 0.00 0.00 0.00 0.00 0.00 0.00 0.00 0.00 0.00 0.00 0.00 0.00 0.00 0.00 0.00 0.00 0.00 0.01 0.01 0.01 0.01 0.01 0.00 0.00 0.00 0.01 0.01 0.01 0.01
0.00 0.00 0.00 0.00 0.00 0.00 0.00 0.00 0.00 0.00 0.00 0.00 0.00 0.00 0.00 0.00 0.00 0.00 0.00 0.00 0.00 0.00 0.00 0.00 0.00 0.00 0.00 0.00 0.00 0.00 0.00 0.00 0.01 0.01 0.01 0.01 0.01 0.01 0.01 0.01 0.01 0.01 0.01
0.00 0.00 0.00 0.00 0.00 0.00 0.00 0.00 0.00 0.00 0.00 0.00 0.00 0.00 0.00 0.00 0.00 0.00 0.00 0.00 0.00 0.00 0.00 0.00 0.00 0.00 0.00 0.00 0.01 0.01 0.01 0.01 0.01 0.01 0.01 0.01 0.01 0.02 0.01 0.01 0.02 0.02 0.02
0.00 0.00 0.00 0.00 0.00 0.00 0.00 0.00 0.00 0.00 0.00 0.00 0.00 0.00 0.00 0.00 0.00 0.00 0.00 0.00 0.00 0.00 0.00 0.00 0.00 0.00 0.00 0.01 0.01 0.01 0.02 0.02 0.02 0.02 0.01 0.01 0.02 0.02 0.02 0.02 0.03 0.03 0.02
MSLP
1007.25 1007.15 1007.12 1007.13 1007.18 1007.30 1007.51 1007.85 1008.34 1008.98 1009.75 1010.62 1011.52 1012.39 1013.19 1013.86 1014.39 1014.79 1015.10 1015.34 1015.58 1015.84 1016.17 1016.58 1017.05 1017.58 1018.12 1018.67 1019.17 1019.63 1020.01 1020.33 1020.59 1020.79 1020.95 1021.07 1021.17 1021.24 1021.28 1021.30 1021.30 1021.27 1021.22
1007.03 1006.95 1006.92 1006.94 1007.00 1007.13 1007.34 1007.69 1008.21 1008.90 1009.74 1010.68 1011.66 1012.62 1013.48 1014.20 1014.76 1015.17 1015.45 1015.67 1015.86 1016.09 1016.37 1016.73 1017.15 1017.64 1018.14 1018.65 1019.13 1019.57 1019.96 1020.30 1020.59 1020.85 1021.07 1021.26 1021.42 1021.54 1021.62 1021.66 1021.67 1021.63 1021.56
1006.94 1006.89 1006.91 1006.96 1007.05 1007.18 1007.40 1007.76 1008.28 1008.98 1009.84 1010.82 1011.84 1012.84 1013.75 1014.51 1015.10 1015.52 1015.81 1016.02 1016.20 1016.39 1016.63 1016.94 1017.32 1017.74 1018.18 1018.63 1019.07 1019.48 1019.86 1020.21 1020.54 1020.85 1021.14 1021.40 1021.62 1021.79 1021.91 1021.97 1021.97 1021.93 1021.84
1007.02 1007.03 1007.11 1007.21 1007.33 1007.48 1007.70 1008.03 1008.53 1009.20 1010.04 1011.00 1012.02 1013.03 1013.95 1014.74 1015.36 1015.82 1016.14 1016.37 1016.55 1016.74 1016.96 1017.23 1017.54 1017.90 1018.27 1018.66 1019.04 1019.41 1019.78 1020.14 1020.49 1020.85 1021.19 1021.50 1021.77 1021.98 1022.12 1022.19 1022.18 1022.12 1022.01
1007.32 1007.40 1007.55 1007.71 1007.86 1008.02 1008.23 1008.53 1008.98 1009.58 1010.35 1011.25 1012.22 1013.20 1014.11 1014.91 1015.55 1016.05 1016.42 1016.69 1016.91 1017.11 1017.33 1017.57 1017.84 1018.14 1018.45 1018.76 1019.09 1019.42 1019.76 1020.11 1020.48 1020.86 1021.23 1021.58 1021.87 1022.10 1022.24 1022.29 1022.27 1022.17 1022.02
1007.85 1008.01 1008.23 1008.44 1008.64 1008.81 1009.00 1009.25 1009.62 1010.14 1010.81 1011.61 1012.49 1013.40 1014.27 1015.06 1015.72 1016.26 1016.68 1017.01 1017.27 1017.51 1017.74 1017.97 1018.21 1018.46 1018.72 1018.97 1019.24 1019.53 1019.84 1020.17 1020.54 1020.92 1021.29 1021.64 1021.93 1022.14 1022.26 1022.28 1022.21 1022.07 1021.88
1008.61 1008.85 1009.14 1009.41 1009.64 1009.83 1010.00 1010.20 1010.49 1010.90 1011.44 1012.12 1012.89 1013.70 1014.51 1015.27 1015.93 1016.50 1016.96 1017.34 1017.66 1017.94 1018.19 1018.43 1018.65 1018.87 1019.08 1019.29 1019.51 1019.75 1020.02 1020.33 1020.66 1021.02 1021.37 1021.68 1021.94 1022.11 1022.18 1022.14 1022.02 1021.83 1021.59
1009.56 1009.87 1010.23 1010.56 1010.83 1011.04 1011.19 1011.35 1011.56 1011.87 1012.29 1012.84 1013.48 1014.19 1014.91 1015.61 1016.25 1016.82 1017.31 1017.73 1018.09 1018.41 1018.68 1018.93 1019.14 1019.34 1019.51 1019.68 1019.86 1020.06 1020.29 1020.56 1020.85 1021.16 1021.45 1021.71 1021.90 1022.01 1022.01 1021.92 1021.75 1021.50 1021.22
1010.64 1011.03 1011.45 1011.84 1012.15 1012.37 1012.53 1012.66 1012.81 1013.03 1013.35 1013.77 1014.29 1014.88 1015.50 1016.12 1016.71 1017.26 1017.75 1018.19 1018.57 1018.91 1019.20 1019.44 1019.65 1019.83 1019.98 1020.12 1020.27 1020.43 1020.62 1020.84 1021.08 1021.32 1021.55 1021.73 1021.85 1021.88 1021.81 1021.66 1021.43 1021.14 1020.81
1011.79 1012.24 1012.72 1013.16 1013.51 1013.75 1013.92 1014.04 1014.16 1014.32 1014.56 1014.88 1015.29 1015.76 1016.28 1016.81 1017.33 1017.83 1018.29 1018.71 1019.09 1019.42 1019.71 1019.95 1020.15 1020.32 1020.45 1020.57 1020.69 1020.82 1020.97 1021.14 1021.32 1021.50 1021.65 1021.75 1021.79 1021.74 1021.61 1021.39 1021.12 1020.79 1020.44
1012.94 1013.45 1013.97 1014.44 1014.82 1015.10 1015.29 1015.41 1015.52 1015.66 1015.84 1016.09 1016.40 1016.78 1017.19 1017.63 1018.07 1018.50 1018.90 1019.28 1019.62 1019.93 1020.20 1020.43 1020.62 1020.77 1020.89 1020.99 1021.09 1021.19 1021.30 1021.43 1021.55 1021.66 1021.74 1021.77 1021.73 1021.62 1021.42 1021.16 1020.85 1020.49 1020.12
1014.06 1014.61 1015.15 1015.64 1016.03 1016.33 1016.54 1016.68 1016.80 1016.92 1017.08 1017.28 1017.53 1017.82 1018.15 1018.50 1018.85 1019.19 1019.53 1019.85 1020.14 1020.41 1020.65 1020.86 1021.03 1021.16 1021.27 1021.36 1021.44 1021.52 1021.60 1021.68 1021.75 1021.80 1021.82 1021.78 1021.67 1021.50 1021.26 1020.95 1020.61 1020.24 1019.85
1015.13 1015.69 1016.23 1016.71 1017.11 1017.40 1017.62 1017.78 1017.91 1018.04 1018.19 1018.37 1018.58 1018.81 1019.06 1019.33 1019.60 1019.87 1020.13 1020.39 1020.63 1020.86 1021.06 1021.24 1021.39 1021.51 1021.60 1021.67 1021.73 1021.79 1021.83 1021.87 1021.90 1021.89 1021.85 1021.75 1021.59 1021.36 1021.08 1020.74 1020.37 1019.98 1019.57
1016.15 1016.71 1017.23 1017.67 1018.03 1018.31 1018.52 1018.69 1018.83 1018.97 1019.12 1019.29 1019.47 1019.67 1019.87 1020.08 1020.28 1020.48 1020.69 1020.88 1021.08 1021.26 1021.43 1021.58 1021.71 1021.81 1021.88 1021.94 1021.97 1021.99 1022.00 1022.00 1021.97 1021.91 1021.81 1021.66 1021.45 1021.18 1020.85 1020.48 1020.08 1019.66 1019.24
1017.15 1017.68 1018.14 1018.53 1018.83 1019.07 1019.26 1019.42 1019.56 1019.71 1019.87 1020.03 1020.21 1020.38 1020.55 1020.71 1020.87 1021.03 1021.18 1021.34 1021.49 1021.64 1021.78 1021.91 1022.01 1022.09 1022.14 1022.16 1022.16 1022.14 1022.10 1022.04 1021.96 1021.84 1021.68 1021.48 1021.22 1020.90 1020.53 1020.13 1019.70 1019.25 1018.80
1018.13 1018.61 1019.00 1019.31 1019.55 1019.74 1019.88 1020.02 1020.16 1020.31 1020.47 1020.63 1020.81 1020.97 1021.12 1021.26 1021.39 1021.52 1021.64 1021.77 1021.89 1022.02 1022.14 1022.24 1022.31 1022.36 1022.37 1022.35 1022.30 1022.23 1022.12 1022.00 1021.85 1021.67 1021.46 1021.20 1020.89 1020.53 1020.12 1019.68 1019.22 1018.74 1018.25
1019.08 1019.51 1019.83 1020.07 1020.23 1020.35 1020.45 1020.56 1020.68 1020.82 1020.98 1021.15 1021.32 1021.48 1021.63 1021.76 1021.87 1021.98 1022.09 1022.19 1022.30 1022.41 1022.50 1022.58 1022.62 1022.63 1022.59 1022.52 1022.41 1022.26 1022.09 1021.90 1021.68 1021.43 1021.15 1020.84 1020.48 1020.08 1019.64 1019.16 1018.67 1018.16 1017.64
1020.00 1020.37 1020.63 1020.79 1020.89 1020.96 1021.02 1021.09 1021.19 1021.32 1021.48 1021.65 1021.82 1021.98 1022.12 1022.25 1022.35 1022.45 1022.55 1022.64 1022.73 1022.82 1022.88 1022.93 1022.93 1022.89 1022.80 1022.66 1022.48 1022.26 1022.01 1021.74 1021.45 1021.14 1020.80 1020.43 1020.03 1019.60 1019.13 1018.63 1018.11 1017.58 1017.05
1020.84 1021.17 1021.38 1021.49 1021.54 1021.56 1021.59 1021.64 1021.72 1021.85 1022.00 1022.16 1022.33 1022.49 1022.63 1022.75 1022.85 1022.94 1023.03 1023.10 1023.18 1023.23 1023.27 1023.28 1023.23 1023.14 1022.99 1022.79 1022.53 1022.24 1021.91 1021.57 1021.21 1020.84 1020.45 1020.04 1019.62 1019.16 1018.67 1018.16 1017.63 1017.08 1016.54
1021.59 1021.89 1022.07 1022.14 1022.16 1022.16 1022.16 1022.19 1022.27 1022.38 1022.53 1022.69 1022.86 1023.01 1023.15 1023.27 1023.36 1023.44 1023.51 1023.56 1023.61 1023.64 1023.64 1023.60 1023.51 1023.36 1023.15 1022.88 1022.56 1022.20 1021.82 1021.41 1020.99 1020.58 1020.15 1019.72 1019.27 1018.81 1018.32 1017.81 1017.28 1016.74 1016.20
1022.22 1022.50 1022.65 1022.71 1022.71 1022.70 1022.69 1022.71 1022.78 1022.89 1023.03 1023.19 1023.36 1023.51 1023.64 1023.75 1023.84 1023.91 1023.96 1023.99 1024.01 1024.00 1023.96 1023.87 1023.73 1023.53 1023.27 1022.95 1022.58 1022.17 1021.74 1021.29 1020.84 1020.39 1019.95 1019.50 1019.05 1018.59 1018.11 1017.61 1017.09 1016.56 1016.04
1022.72 1022.98 1023.12 1023.17 1023.16 1023.14 1023.13 1023.15 1023.21 1023.32 1023.46 1023.61 1023.78 1023.93 1024.07 1024.18 1024.26 1024.31 1024.34 1024.35 1024.34 1024.29 1024.21 1024.08 1023.90 1023.66 1023.36 1023.00 1022.59 1022.15 1021.69 1021.22 1020.75 1020.29 1019.84 1019.39 1018.95 1018.50 1018.03 1017.55 1017.05 1016.54 1016.03
1023.10 1023.34 1023.46 1023.50 1023.49 1023.46 1023.44 1023.45 1023.51 1023.61 1023.75 1023.91 1024.07 1024.23 1024.37 1024.49 1024.57 1024.62 1024.64 1024.63 1024.59 1024.51 1024.39 1024.23 1024.01 1023.74 1023.41 1023.03 1022.60 1022.15 1021.68 1021.20 1020.73 1020.27 1019.82 1019.38 1018.95 1018.51 1018.07 1017.60 1017.12 1016.63 1016.13
1023.38 1023.59 1023.69 1023.71 1023.69 1023.64 1023.61 1023.61 1023.66 1023.75 1023.88 1024.04 1024.22 1024.39 1024.54 1024.67 1024.76 1024.81 1024.83 1024.81 1024.75 1024.65 1024.51 1024.31 1024.07 1023.78 1023.43 1023.04 1022.62 1022.16 1021.70 1021.22 1020.76 1020.31 1019.87 1019.44 1019.02 1018.59 1018.16 1017.71 1017.24 1016.76 1016.27
1023.58 1023.75 1023.83 1023.83 1023.77 1023.71 1023.65 1023.63 1023.66 1023.74 1023.87 1024.04 1024.22 1024.41 1024.59 1024.73 1024.85 1024.91 1024.94 1024.91 1024.84 1024.73 1024.57 1024.36 1024.10 1023.79 1023.44 1023.05 1022.63 1022.19 1021.74 1021.28 1020.83 1020.39 1019.95 1019.53 1019.12 1018.70 1018.27 1017.83 1017.37 1016.90 1016.42
1023.74 1023.87 1023.91 1023.87 1023.79 1023.69 1023.61 1023.56 1023.57 1023.63 1023.76 1023.93 1024.13 1024.34 1024.54 1024.72 1024.86 1024.95 1024.99 1024.97 1024.90 1024.77 1024.60 1024.38 1024.11 1023.80 1023.45 1023.07 1022.67 1022.24 1021.80 1021.36 1020.92 1020.49 1020.06 1019.64 1019.23 1018.81 1018.39 1017.95 1017.50 1017.03 1016.55
Thickness
5797 5797 5796 5795 5791 5787 5782 5777 5770 5763 5755 5746 5736 5727 5719 5711 5706 5702 5698 5696 5693 5689 5684 5680 5675 5671 5667 5663 5659 5654 5649 5644 5641 5637 5632 5628 5626 5624 5621 5620 5618 5616 5613
5787 5788 5790 5789 5787 5784 5780 5774 5768 5761 5753 5744 5733 5723 5713 5702 5698 5694 5690 5687 5685 5682 5677 5674 5669 5664 5658 5654 5651 5647 5640 5634 5631 5628 5624 5619 5615 5612 5609 5606 5604 5601 5599
5782 5785 5784 5783 5781 5778 5775 5771 5763 5755 5746 5737 5725 5714 5703 5693 5687 5682 5679 5677 5676 5673 5669 5664 5660 5655 5651 5646 5642 5638 5633 5625 5619 5617 5615 5611 5607 5600 5597 5593 5590 5587 5584
5776 5778 5778 5776 5774 5772 5770 5764 5756 5747 5738 5729 5720 5710 5699 5688 5681 5676 5671 5668 5667 5664 5659 5655 5651 5647 5642 5636 5631 5627 5622 5616 5610 5604 5600 5596 5593 5589 5586 5582 5577 5574 5571
5767 5769 5770 5769 5767 5765 5761 5755 5747 5737 5729 5721 5712 5701 5691 5683 5674 5668 5663 5659 5656 5653 5649 5645 5641 5637 5632 5626 5620 5615 5610 5605 5600 5594 5588 5583 5577 5573 5571 5569 5565 5561 5557
5756 5758 5759 5758 5755 5752 5748 5743 5736 5727 5719 5712 5702 5692 5682 5674 5668 5661 5655 5650 5645 5641 5638 5634 5630 5625 5620 5615 5610 5604 5598 5593 5588 5581 5576 5571 5566 5561 5555 5553 5551 5548 5545
5743 5744 5744 5743 5740 5737 5734 5729 5723 5715 5709 5703 5695 5685 5676 5667 5660 5654 5647 5640 5635 5631 5628 5624 5619 5613 5608 5603 5597 5591 5585 5580 5575 5568 5562 5557 5552 5547 5541 5538 5537 5534 5533
5728 5729 5729 5728 5725 5723 5720 5716 5709 5702 5697 5691 5682 5674 5665 5657 5650 5643 5637 5632 5627 5622 5617 5612 5606 5600 5595 5590 5583 5577 5571 5566 5561 5555 5549 5543 5538 5532 5527 5523 5521 5522 5522
5713 5713 5712 5710 5708 5705 5702 5698 5693 5687 5682 5675 5668 5660 5653 5647 5639 5632 5626 5620 5615 5610 5603 5598 5592 5586 5581 5575 5568 5562 5556 5550 5545 5539 5534 5528 5523 5517 5512 5508 5503 5502 5507
5698 5697 5695 5693 5690 5687 5683 5680 5676 5670 5664 5658 5652 5645 5639 5633 5626 5620 5613 5607 5601 5595 5588 5582 5576 5570 5564 5558 5552 5546 5540 5534 5528 5523 5518 5513 5508 5503 5498 5493 5488 5484 5483
5682 5680 5678 5675 5672 5669 5666 5662 5658 5653 5647 5641 5635 5630 5624 5618 5612 5604 5597 5591 5585 5578 5573 5566 5559 5552 5546 5540 5534 5528 5523 5518 5512 5507 5503 5498 5493 5489 5484 5479 5475 5470 5466
5666 5663 5660 5658 5655 5651 5648 5644 5640 5635 5630 5625 5619 5613 5606 5600 5594 5587 5579 5573 5566 5560 5554 5548 5541 5534 5528 5522 5517 5511 5506 5501 5496 5492 5487 5483 5480 5475 5471 5466 5462 5457 5453
5650 5647 5644 5641 5638 5635 5632 5627 5622 5618 5613 5608 5602 5596 5589 5583 5575 5568 5561 5555 5548 5542 5535 5529 5522 5516 5510 5505 5500 5495 5490 5485 5481 5477 5473 5470 5466 5463 5458 5454 5450 5447 5444
5634 5631 5627 5623 5620 5617 5614 5610 5605 5600 5595 5590 5583 5576 5569 5563 5556 5549 5543 5536 5530 5523 5517 5511 5504 5498 5493 5488 5483 5479 5474 5471 5467 5464 5460 5457 5454 5451 5448 5445 5441 5438 5435
5619 5614 5610 5607 5603 5599 5595 5591 5586 5582 5577 5571 5564 5556 5549 5543 5537 5530 5524 5517 5511 5505 5498 5492 5487 5481 5477 5472 5468 5464 5461 5457 5454 5451 5448 5446 5444 5443 5439 5437 5434 5430 5428
5603 5598 5594 5590 5586 5582 5577 5572 5567 5562 5558 5552 5544 5538 5531 5525 5518 5511 5505 5498 5492 5486 5481 5475 5470 5466 5462 5457 5454 5451 5448 5445 5442 5439 5437 5435 5434 5431 5429 5427 5425 5423 5421
5586 5582 5576 5571 5567 5562 5558 5553 5548 5544 5538 5532 5525 5519 5513 5506 5500 5494 5487 5481 5475 5470 5465 5460 5455 5451 5447 5444 5441 5439 5436 5433 5431 5429 5427 5426 5425 5422 5420 5419 5418 5417 5416
5568 5562 5557 5553 5548 5543 5539 5534 5530 5525 5520 5513 5507 5501 5495 5488 5482 5476 5470 5464 5459 5454 5450 5445 5441 5437 5434 5431 5428 5426 5424 5422 5421 5420 5419 5417 5417 5416 5414 5414 5414 5414 5414
5549 5544 5540 5535 5531 5526 5522 5517 5512 5507 5502 5495 5489 5483 5477 5471 5465 5459 5453 5449 5444 5439 5435 5431 5427 5424 5421 5419 5416 5415 5413 5413 5413 5413 5412 5412 5411 5410 5409 5410 5411 5413 5415
5533 5529 5524 5520 5515 5510 5506 5501 5495 5490 5484 5478 5473 5467 5461 5456 5450 5444 5439 5434 5430 5425 5422 5418 5414 5411 5408 5406 5405 5403 5402 5403 5404 5406 5407 5407 5406 5406 5407 5408 5409 5412 5414
5518 5514 5509 5505 5500 5495 5491 5485 5480 5474 5469 5464 5458 5453 5447 5441 5436 5430 5425 5421 5416 5412 5408 5404 5401 5398 5396 5395 5394 5394 5394 5394 5396 5399 5401 5402 5403 5404 5406 5407 5409 5411 5413
5504 5500 5496 5490 5485 5482 5477 5472 5466 5461 5456 5451 5446 5440 5435 5430 5424 5418 5412 5407 5402 5398 5394 5391 5389 5388 5386 5386 5386 5386 5387 5388 5391 5393 5395 5398 5400 5403 5406 5408 5410 5412 5414
5492 5487 5483 5478 5474 5470 5466 5460 5455 5450 5445 5440 5434 5428 5423 5417 5411 5406 5400 5394 5389 5385 5382 5379 5378 5378 5378 5378 5379 5381 5383 5385 5387 5390 5392 5396 5399 5403 5406 5409 5411 5413 5415
5481 5476 5472 5468 5464 5460 5456 5451 5447 5442 5436 5430 5423 5417 5411 5405 5399 5394 5389 5384 5379 5375 5372 5371 5370 5370 5371 5373 5374 5376 5379 5382 5385 5388 5391 5395 5399 5403 5406 5409 5412 5413 5414
5471 5468 5464 5460 5456 5452 5448 5444 5439 5434 5427 5421 5414 5407 5400 5394 5388 5383 5378 5375 5371 5368 5365 5364 5363 5364 5366 5367 5368 5370 5374 5378 5381 5386 5391 5395 5398 5402 5405 5409 5411 5413 5414
5465 5461 5457 5453 5449 5446 5441 5437 5432 5426 5419 5411 5404 5397 5390 5384 5379 5375 5371 5368 5366 5364 5362 5360 5360 5361 5362 5364 5367 5370 5374 5378 5382 5386 5389 5393 5396 5400 5403 5406 5409 5412 5413